Date String (YYYY-MM-DD hh:mm:ss) UTC,Instrument flags,Ambient pressure (hPa),Sample flow (lpm),Bypass flow (lpm),Sample temperature (°C),Ambient temperature (°C),ASC tube jacket temperature (°C),LED temperature (°C),Box temperature (°C),Sample RH (%),Span deviation,Mass concentration (μg/m³),Mass concentration (μg/m³),Mass concentration (μg/m³)
DateTimeUTC,F1_M11,P_M11,Q1_M11,Q2_M11,T1_M11,T2_M11,T3_M11,T4_M11,T5_M11,U1_M11,ZSPAN_M11,X0_M11,X2_M11,X1_M11
2022-05-12 04:00:00,,0819.3,5.00,0.00,29.7,28.6,00.0,38.6,31.6,19.5,0002.7,0030.11,0008.97,0005.55
2022-05-12 04:01:00,,0819.3,5.01,0.00,29.8,28.7,00.0,38.6,31.6,19.5,0002.4,0029.18,0008.99,0005.55
2022-05-12 04:02:00,,0819.4,5.00,0.00,29.8,28.7,00.0,38.6,31.6,19.4,0002.6,0029.58,0009.00,0005.53
2022-05-12 04:03:00,,0819.4,4.99,0.00,29.8,28.8,00.0,38.6,31.7,19.4,0002.3,0029.98,0008.90,0005.53
2022-05-12 04:04:00,,0819.4,5.00,0.00,29.8,28.8,00.0,38.6,31.7,19.4,0002.5,0028.62,0008.87,0005.53
2022-05-12 04:05:00,,0819.4,5.00,0.00,29.8,28.9,00.0,38.6,31.7,19.4,0001.9,0026.76,0008.83,0005.52
2022-05-12 04:06:00,,0819.4,4.99,0.00,29.8,28.0,00.0,38.7,31.4,19.3,0001.2,0026.29,0008.77,0005.53
2022-05-12 04:07:00,,0819.4,5.00,0.00,29.7,26.0,00.0,38.6,31.0,19.4,0001.4,0025.42,0008.71,0005.51
2022-05-12 04:08:00,,0819.4,5.01,0.00,29.6,25.7,00.0,38.6,31.0,19.5,0001.5,0025.02,0008.72,0005.51
2022-05-12 04:09:00,,0819.4,4.99,0.00,29.5,26.1,00.0,38.5,31.0,19.7,0001.3,0025.01,0008.58,0005.51
2022-05-12 04:10:00,,0819.4,5.01,0.00,29.5,26.5,00.0,38.5,31.0,19.7,0001.0,0025.15,0008.45,0005.49
2022-05-12 04:11:00,,0819.4,4.99,0.00,29.4,26.9,00.0,38.5,31.1,19.7,0001.8,0024.96,0008.42,0005.48
2022-05-12 04:12:00,,0819.5,5.00,0.00,29.5,27.3,00.0,38.5,31.2,19.7,0002.1,0024.66,0008.36,0005.48
2022-05-12 04:13:00,,0819.5,5.01,0.00,29.5,27.5,00.0,38.4,31.2,19.7,0002.6,0025.24,0008.41,0005.48
2022-05-12 04:14:00,,0819.6,4.99,0.00,29.5,27.7,00.0,38.4,31.3,19.6,0002.4,0025.90,0008.53,0005.48
2022-05-12 04:15:00,,0819.6,4.99,0.00,29.5,27.9,00.0,38.4,31.3,19.6,0002.0,0028.70,0008.58,0005.46
2022-05-12 04:16:00,,0819.5,4.99,0.00,29.5,28.0,00.0,38.5,31.3,19.2,0002.1,0030.63,0008.58,0005.44
2022-05-12 04:17:00,,0819.6,5.00,0.00,29.5,28.1,00.0,38.5,31.4,19.1,0002.5,0030.95,0008.53,0005.40
2022-05-12 04:18:00,,0819.6,5.01,0.00,29.5,28.2,00.0,38.5,31.4,18.9,0002.5,0031.25,0008.52,0005.39
2022-05-12 04:19:00,,0819.7,4.99,0.00,29.6,28.3,00.0,38.5,31.4,16.9,0002.5,0031.39,0008.41,0005.34
2022-05-12 04:20:00,,0819.7,5.00,0.00,29.6,28.3,00.0,38.5,31.4,15.4,0002.4,0030.16,0008.26,0005.22
2022-05-12 04:21:00,,0819.7,5.01,0.00,29.6,28.4,00.0,38.5,31.4,16.2,0003.0,0028.93,0008.15,0005.13
2022-05-12 04:22:00,,0819.7,4.98,0.00,29.6,28.4,00.0,38.5,31.4,15.9,0002.7,0028.41,0008.04,0005.05
2022-05-12 04:23:00,,0819.8,4.99,0.00,29.6,28.5,00.0,38.5,31.4,16.4,0002.2,0027.77,0007.82,0004.94
2022-05-12 04:24:00,,0819.7,5.00,0.00,29.6,28.5,00.0,38.5,31.4,17.3,0001.4,0028.05,0007.68,0004.88
2022-05-12 04:25:00,,0819.7,5.00,0.00,29.6,28.5,00.0,38.5,31.4,17.0,0001.2,0026.55,0007.51,0004.81
2022-05-12 04:26:00,,0819.7,5.00,0.00,29.6,28.6,00.0,38.5,31.4,16.9,0001.1,0023.69,0007.36,0004.75
2022-05-12 04:27:00,,0819.7,5.00,0.00,29.7,28.6,00.0,38.5,31.5,16.9,0001.0,0022.52,0007.23,0004.69
2022-05-12 04:28:00,,0819.7,4.99,0.00,29.7,28.7,00.0,38.5,31.5,17.3,0001.6,0022.63,0007.13,0004.65
2022-05-12 04:29:00,,0819.7,5.00,0.00,29.7,28.8,00.0,38.6,31.5,17.8,0001.6,0023.04,0007.07,0004.63
2022-05-12 04:30:00,,0819.7,5.01,0.00,29.8,28.9,00.0,38.6,31.6,17.5,0001.7,0022.90,0007.08,0004.64
2022-05-12 04:31:00,,0819.7,5.01,0.00,29.8,28.9,00.0,38.6,31.6,17.6,0002.1,0023.43,0007.19,0004.71
2022-05-12 04:32:00,,0819.7,5.00,0.00,29.8,29.0,00.0,38.6,31.6,17.3,0001.7,0024.32,0007.23,0004.76
2022-05-12 04:33:00,,0819.7,4.99,0.00,29.9,29.0,00.0,38.6,31.7,17.5,0002.1,0024.15,0007.28,0004.80
2022-05-12 04:34:00,,0819.8,5.00,0.00,29.9,29.0,00.0,38.7,31.7,17.3,0002.5,0025.21,0007.41,0004.86
2022-05-12 04:35:00,,0819.8,5.00,0.00,29.9,28.6,00.0,38.7,31.6,17.2,0003.0,0024.71,0007.43,0004.86
2022-05-12 04:36:00,,0819.8,5.00,0.00,29.8,26.4,00.0,38.7,31.2,17.4,0003.1,0024.19,0007.45,0004.87
2022-05-12 04:37:00,,0819.8,5.01,0.00,29.7,25.6,00.0,38.6,31.0,17.8,0003.2,0025.33,0007.55,0004.92
2022-05-12 04:38:00,,0819.8,5.00,0.00,29.6,25.9,00.0,38.6,31.0,17.7,0003.4,0025.13,0007.61,0004.95
2022-05-12 04:39:00,,0819.8,5.01,0.00,29.5,26.3,00.0,38.5,31.1,18.3,0003.3,0025.00,0007.73,0005.00
2022-05-12 04:40:00,,0819.9,4.99,0.00,29.5,26.8,00.0,38.5,31.1,18.4,0003.3,0024.76,0007.86,0005.02
2022-05-12 04:41:00,,0820.0,5.02,0.00,29.5,27.2,00.0,38.5,31.1,18.7,0003.2,0024.92,0007.94,0005.04
2022-05-12 04:42:00,,0819.9,4.99,0.00,29.5,27.5,00.0,38.5,31.2,18.8,0002.8,0024.28,0007.99,0005.08
2022-05-12 04:43:00,,0819.9,4.99,0.00,29.5,27.8,00.0,38.5,31.2,19.1,0002.6,0023.95,0008.12,0005.14
2022-05-12 04:44:00,,0819.9,5.00,0.00,29.5,28.0,00.0,38.5,31.3,19.2,0002.1,0024.36,0008.15,0005.19
2022-05-12 04:45:00,,0819.9,5.01,0.00,29.6,28.2,00.0,38.5,31.3,19.2,0002.1,0024.66,0008.15,0005.24
2022-05-12 04:46:00,,0819.9,5.01,0.00,29.6,28.3,00.0,38.5,31.4,19.4,0002.0,0024.23,0008.25,0005.31
2022-05-12 04:47:00,,0819.8,5.00,0.00,29.6,28.4,00.0,38.5,31.4,19.5,0001.4,0025.20,0008.42,0005.39
2022-05-12 04:48:00,,0819.9,5.01,0.00,29.6,28.5,00.0,38.5,31.4,19.6,0001.6,0025.11,0008.51,0005.44
2022-05-12 04:49:00,,0819.9,5.00,0.00,29.7,28.6,00.0,38.5,31.5,19.5,0001.3,0025.37,0008.53,0005.50
2022-05-12 04:50:00,,0819.9,5.00,0.00,29.7,28.6,00.0,38.5,31.5,19.5,0001.4,0026.59,0008.66,0005.54
2022-05-12 04:51:00,,0819.9,5.00,0.00,29.7,28.7,00.0,38.5,31.5,19.5,0001.9,0026.53,0008.59,0005.57
2022-05-12 04:52:00,,0819.9,4.99,0.00,29.8,28.8,00.0,38.6,31.6,19.7,0001.8,0026.46,0008.59,0005.61
2022-05-12 04:53:00,,0819.9,5.00,0.00,29.8,28.8,00.0,38.6,31.6,19.7,0002.2,0026.90,0008.70,0005.64
2022-05-12 04:54:00,,0819.9,5.00,0.00,29.8,28.9,00.0,38.6,31.6,19.9,0002.4,0026.94,0008.77,0005.66
2022-05-12 04:55:00,,0819.9,5.00,0.00,29.8,28.9,00.0,38.6,31.7,19.9,0002.1,0027.48,0008.85,0005.69
2022-05-12 04:56:00,,0819.9,5.00,0.00,29.9,28.9,00.0,38.6,31.7,20.0,0001.4,0027.74,0008.92,0005.71
2022-05-12 04:57:00,,0819.9,5.00,0.00,29.9,29.0,00.0,38.7,31.7,20.1,0001.2,0027.57,0008.85,0005.72
2022-05-12 04:58:00,,0819.9,5.00,0.00,29.9,29.0,00.0,38.7,31.7,20.1,0001.8,0027.71,0008.85,0005.74
2022-05-12 04:59:00,,0819.9,4.99,0.00,29.9,29.0,00.0,38.7,31.8,20.3,0002.0,0027.42,0008.88,0005.77
